QPF
0.00 0.00 0.01 0.03 0.04 0.03 0.01 0.00 0.00 0.00 0.00 0.00 0.00 0.00 0.00 0.00 0.00 0.00 0.00 0.00 0.00 0.00 0.00 0.00 0.00 0.00 0.00 0.00 0.00 0.00 0.00 0.00 0.00 0.00 0.00 0.01 0.00 0.00 0.00 0.00 0.00 0.00 0.00 0.00
0.00 0.00 0.01 0.03 0.04 0.01 0.00 0.00 0.00 0.00 0.00 0.00 0.00 0.00 0.00 0.00 0.00 0.00 0.00 0.00 0.00 0.00 0.00 0.00 0.00 0.00 0.00 0.00 0.00 0.00 0.00 0.00 0.00 0.00 0.01 0.01 0.01 0.02 0.02 0.02 0.02 0.02 0.01 0.01
0.00 0.00 0.00 0.02 0.01 0.00 0.00 0.00 0.00 0.00 0.00 0.00 0.00 0.00 0.00 0.00 0.00 0.00 0.00 0.00 0.00 0.00 0.00 0.00 0.00 0.00 0.00 0.00 0.00 0.00 0.00 0.00 0.00 0.00 0.00 0.00 0.00 0.01 0.02 0.02 0.03 0.03 0.02 0.01
0.00 0.00 0.00 0.00 0.00 0.00 0.00 0.00 0.00 0.00 0.00 0.00 0.00 0.00 0.00 0.00 0.00 0.00 0.00 0.00 0.00 0.00 0.00 0.00 0.00 0.00 0.00 0.00 0.00 0.00 0.00 0.00 0.00 0.00 0.00 0.00 0.00 0.00 0.01 0.02 0.02 0.02 0.02 0.01
0.00 0.00 0.00 0.00 0.00 0.00 0.00 0.00 0.00 0.00 0.00 0.00 0.00 0.00 0.00 0.00 0.00 0.00 0.00 0.00 0.00 0.00 0.00 0.00 0.00 0.00 0.00 0.00 0.00 0.00 0.01 0.01 0.01 0.01 0.01 0.00 0.00 0.00 0.01 0.01 0.01 0.01 0.01 0.01
0.00 0.00 0.00 0.00 0.00 0.00 0.00 0.00 0.00 0.00 0.00 0.00 0.00 0.00 0.00 0.00 0.00 0.00 0.00 0.00 0.00 0.00 0.00 0.00 0.00 0.00 0.01 0.02 0.02 0.03 0.03 0.03 0.02 0.01 0.01 0.01 0.01 0.00 0.00 0.01 0.01 0.01 0.01 0.01
0.00 0.00 0.00 0.00 0.00 0.00 0.00 0.00 0.00 0.00 0.00 0.00 0.00 0.00 0.00 0.00 0.00 0.00 0.00 0.00 0.00 0.00 0.00 0.00 0.01 0.02 0.04 0.05 0.05 0.05 0.05 0.05 0.03 0.03 0.02 0.02 0.01 0.01 0.00 0.00 0.01 0.01 0.02 0.01
0.00 0.00 0.00 0.00 0.00 0.00 0.00 0.00 0.00 0.00 0.00 0.00 0.00 0.00 0.00 0.00 0.00 0.00 0.00 0.00 0.00 0.00 0.00 0.00 0.01 0.04 0.07 0.07 0.06 0.06 0.05 0.05 0.03 0.02 0.02 0.02 0.01 0.01 0.01 0.01 0.01 0.01 0.01 0.01
0.00 0.00 0.00 0.00 0.00 0.00 0.00 0.00 0.00 0.00 0.00 0.00 0.00 0.00 0.00 0.00 0.00 0.00 0.00 0.00 0.00 0.00 0.01 0.01 0.02 0.05 0.08 0.07 0.06 0.05 0.05 0.03 0.02 0.02 0.02 0.02 0.02 0.02 0.01 0.01 0.02 0.01 0.01 0.01
0.00 0.00 0.00 0.00 0.00 0.00 0.00 0.00 0.00 0.00 0.00 0.00 0.00 0.00 0.00 0.00 0.00 0.00 0.00 0.00 0.01 0.02 0.03 0.04 0.04 0.04 0.05 0.06 0.06 0.06 0.05 0.04 0.03 0.03 0.03 0.04 0.04 0.04 0.03 0.02 0.02 0.02 0.02 0.02
0.00 0.00 0.00 0.00 0.00 0.00 0.00 0.00 0.00 0.00 0.00 0.00 0.00 0.00 0.00 0.00 0.00 0.00 0.00 0.01 0.02 0.03 0.05 0.04 0.04 0.03 0.03 0.05 0.06 0.07 0.07 0.05 0.05 0.05 0.06 0.06 0.06 0.06 0.05 0.04 0.04 0.03 0.02 0.02
0.00 0.00 0.00 0.00 0.00 0.00 0.00 0.00 0.00 0.00 0.00 0.00 0.00 0.00 0.00 0.00 0.00 0.00 0.01 0.02 0.04 0.04 0.04 0.03 0.02 0.02 0.03 0.05 0.06 0.08 0.09 0.07 0.07 0.07 0.07 0.07 0.07 0.05 0.04 0.03 0.02 0.02 0.02 0.02
0.00 0.00 0.00 0.00 0.00 0.00 0.00 0.00 0.00 0.00 0.00 0.00 0.00 0.00 0.00 0.00 0.00 0.00 0.02 0.03 0.04 0.04 0.03 0.02 0.01 0.02 0.03 0.04 0.06 0.08 0.10 0.09 0.08 0.08 0.08 0.07 0.05 0.03 0.03 0.02 0.01 0.01 0.01 0.01
0.00 0.00 0.00 0.00 0.00 0.00 0.00 0.00 0.00 0.00 0.00 0.00 0.00 0.00 0.00 0.00 0.00 0.01 0.03 0.03 0.03 0.02 0.01 0.01 0.01 0.01 0.02 0.03 0.06 0.07 0.08 0.09 0.08 0.07 0.05 0.03 0.03 0.02 0.02 0.02 0.02 0.01 0.01 0.01
0.00 0.00 0.00 0.00 0.00 0.00 0.00 0.00 0.00 0.00 0.00 0.00 0.00 0.00 0.00 0.00 0.01 0.02 0.02 0.02 0.01 0.01 0.01 0.01 0.01 0.01 0.02 0.03 0.04 0.05 0.06 0.05 0.04 0.03 0.03 0.02 0.01 0.01 0.01 0.02 0.02 0.02 0.01 0.01
0.00 0.00 0.00 0.00 0.00 0.00 0.00 0.00 0.00 0.00 0.00 0.00 0.00 0.00 0.00 0.00 0.01 0.01 0.01 0.01 0.01 0.01 0.01 0.01 0.01 0.01 0.02 0.03 0.03 0.04 0.04 0.03 0.02 0.01 0.01 0.01 0.01 0.01 0.01 0.01 0.02 0.03 0.02 0.01
0.00 0.00 0.00 0.00 0.00 0.00 0.00 0.00 0.00 0.00 0.00 0.00 0.00 0.00 0.00 0.00 0.01 0.01 0.01 0.01 0.01 0.01 0.01 0.01 0.01 0.01 0.02 0.02 0.02 0.02 0.02 0.02 0.01 0.01 0.01 0.01 0.01 0.02 0.02 0.03 0.05 0.06 0.05 0.02
0.00 0.00 0.00 0.00 0.00 0.00 0.00 0.00 0.00 0.00 0.00 0.00 0.00 0.00 0.00 0.00 0.01 0.01 0.01 0.01 0.01 0.01 0.01 0.01 0.01 0.02 0.02 0.02 0.01 0.02 0.02 0.01 0.01 0.01 0.01 0.01 0.01 0.03 0.04 0.06 0.08 0.08 0.05 0.02
0.00 0.00 0.00 0.00 0.00 0.00 0.00 0.00 0.00 0.00 0.00 0.00 0.00 0.00 0.00 0.00 0.00 0.00 0.01 0.02 0.03 0.03 0.02 0.02 0.02 0.02 0.02 0.02 0.02 0.03 0.02 0.02 0.01 0.01 0.02 0.02 0.02 0.03 0.04 0.06 0.06 0.05 0.03 0.03
0.00 0.00 0.00 0.00 0.00 0.00 0.00 0.00 0.00 0.00 0.00 0.00 0.00 0.00 0.00 0.00 0.00 0.00 0.01 0.02 0.02 0.03 0.02 0.02 0.02 0.01 0.01 0.02 0.03 0.04 0.04 0.04 0.03 0.01 0.02 0.02 0.03 0.02 0.02 0.02 0.03 0.03 0.02 0.04
0.00 0.00 0.00 0.00 0.00 0.00 0.00 0.00 0.00 0.00 0.00 0.00 0.00 0.00 0.00 0.00 0.00 0.00 0.00 0.01 0.01 0.01 0.02 0.03 0.02 0.02 0.02 0.02 0.04 0.06 0.07 0.07 0.06 0.03 0.01 0.01 0.01 0.01 0.01 0.01 0.01 0.01 0.01 0.01
0.00 0.00 0.00 0.00 0.00 0.00 0.00 0.00 0.00 0.00 0.00 0.00 0.00 0.00 0.00 0.00 0.00 0.00 0.00 0.00 0.00 0.01 0.01 0.01 0.02 0.02 0.02 0.02 0.03 0.05 0.06 0.07 0.07 0.05 0.03 0.01 0.00 0.00 0.00 0.00 0.00 0.00 0.00 0.00
0.00 0.00 0.00 0.00 0.00 0.00 0.00 0.00 0.00 0.00 0.00 0.00 0.00 0.00 0.00 0.00 0.00 0.00 0.00 0.00 0.00 0.00 0.00 0.01 0.02 0.02 0.02 0.02 0.03 0.04 0.03 0.03 0.02 0.02 0.02 0.01 0.00 0.00 0.00 0.00 0.00 0.00 0.00 0.00
0.00 0.00 0.00 0.00 0.00 0.00 0.00 0.00 0.00 0.00 0.00 0.00 0.00 0.00 0.00 0.00 0.00 0.00 0.00 0.00 0.00 0.00 0.00 0.01 0.01 0.01 0.01 0.02 0.03 0.04 0.04 0.04 0.03 0.02 0.01 0.01 0.00 0.00 0.00 0.00 0.00 0.00 0.00 0.00
0.00 0.00 0.00 0.00 0.00 0.00 0.00 0.00 0.00 0.00 0.00 0.00 0.00 0.00 0.00 0.00 0.00 0.00 0.00 0.00 0.00 0.00 0.00 0.00 0.00 0.01 0.01 0.01 0.02 0.04 0.07 0.10 0.10 0.07 0.04 0.02 0.01 0.01 0.00 0.00 0.00 0.00 0.00 0.00
0.00 0.00 0.00 0.00 0.00 0.00 0.00 0.00 0.00 0.00 0.00 0.00 0.00 0.00 0.00 0.00 0.00 0.00 0.00 0.00 0.00 0.00 0.00 0.00 0.00 0.00 0.00 0.00 0.01 0.03 0.07 0.12 0.16 0.17 0.14 0.09 0.06 0.04 0.02 0.03 0.03 0.02 0.01 0.01
0.00 0.00 0.00 0.00 0.00 0.00 0.00 0.00 0.00 0.00 0.00 0.00 0.00 0.00 0.00 0.00 0.00 0.00 0.00 0.00 0.00 0.00 0.00 0.00 0.00 0.00 0.00 0.00 0.01 0.03 0.05 0.09 0.15 0.21 0.23 0.20 0.15 0.12 0.11 0.09 0.08 0.07 0.06 0.05
MSLP
1015.31 1015.62 1015.95 1016.30 1016.67 1017.05 1017.40 1017.69 1017.90 1018.00 1017.97 1017.81 1017.53 1017.14 1016.68 1016.16 1015.60 1015.02 1014.42 1013.80 1013.17 1012.51 1011.85 1011.18 1010.52 1009.89 1009.30 1008.77 1008.32 1007.94 1007.64 1007.42 1007.28 1007.20 1007.19 1007.24 1007.32 1007.44 1007.56 1007.68 1007.76 1007.80 1007.77 1007.67
1016.03 1016.41 1016.74 1017.05 1017.34 1017.59 1017.80 1017.96 1018.04 1018.03 1017.93 1017.72 1017.41 1017.01 1016.52 1015.96 1015.35 1014.69 1014.00 1013.30 1012.58 1011.85 1011.14 1010.44 1009.78 1009.14 1008.56 1008.03 1007.55 1007.14 1006.79 1006.51 1006.30 1006.17 1006.12 1006.14 1006.24 1006.39 1006.57 1006.75 1006.92 1007.03 1007.07 1007.03
1016.72 1017.12 1017.45 1017.72 1017.92 1018.06 1018.15 1018.18 1018.15 1018.05 1017.86 1017.60 1017.25 1016.80 1016.28 1015.67 1015.00 1014.28 1013.53 1012.75 1011.98 1011.22 1010.48 1009.79 1009.14 1008.53 1007.97 1007.45 1006.97 1006.53 1006.13 1005.79 1005.51 1005.32 1005.21 1005.20 1005.28 1005.43 1005.64 1005.86 1006.07 1006.24 1006.32 1006.32
1017.35 1017.73 1018.03 1018.23 1018.34 1018.39 1018.37 1018.29 1018.16 1017.97 1017.72 1017.40 1017.01 1016.53 1015.96 1015.32 1014.61 1013.84 1013.05 1012.24 1011.44 1010.67 1009.95 1009.28 1008.66 1008.09 1007.56 1007.05 1006.56 1006.10 1005.66 1005.26 1004.92 1004.66 1004.49 1004.43 1004.47 1004.61 1004.81 1005.04 1005.26 1005.44 1005.55 1005.56
1017.87 1018.20 1018.42 1018.54 1018.57 1018.52 1018.41 1018.25 1018.03 1017.77 1017.47 1017.10 1016.67 1016.17 1015.59 1014.93 1014.20 1013.42 1012.61 1011.80 1011.01 1010.27 1009.57 1008.93 1008.35 1007.81 1007.30 1006.80 1006.30 1005.81 1005.33 1004.88 1004.48 1004.15 1003.93 1003.81 1003.81 1003.91 1004.08 1004.29 1004.49 1004.66 1004.75 1004.76
1018.25 1018.48 1018.61 1018.64 1018.59 1018.45 1018.26 1018.02 1017.75 1017.44 1017.10 1016.71 1016.27 1015.76 1015.17 1014.52 1013.81 1013.04 1012.26 1011.47 1010.71 1009.99 1009.32 1008.71 1008.15 1007.62 1007.12 1006.61 1006.10 1005.58 1005.06 1004.56 1004.11 1003.73 1003.45 1003.29 1003.23 1003.28 1003.40 1003.57 1003.74 1003.87 1003.94 1003.94
1018.43 1018.55 1018.59 1018.53 1018.39 1018.19 1017.94 1017.66 1017.34 1017.01 1016.65 1016.25 1015.81 1015.32 1014.76 1014.13 1013.45 1012.73 1011.98 1011.23 1010.50 1009.80 1009.16 1008.56 1008.00 1007.46 1006.93 1006.41 1005.86 1005.31 1004.75 1004.22 1003.73 1003.31 1002.99 1002.78 1002.68 1002.68 1002.75 1002.86 1002.98 1003.08 1003.13 1003.11
1018.39 1018.41 1018.36 1018.23 1018.03 1017.78 1017.50 1017.19 1016.86 1016.52 1016.16 1015.77 1015.35 1014.89 1014.36 1013.78 1013.15 1012.47 1011.77 1011.05 1010.35 1009.67 1009.02 1008.40 1007.82 1007.25 1006.68 1006.11 1005.52 1004.93 1004.34 1003.78 1003.27 1002.82 1002.48 1002.23 1002.10 1002.05 1002.08 1002.14 1002.22 1002.29 1002.32 1002.31
1018.14 1018.08 1017.96 1017.78 1017.55 1017.28 1016.99 1016.68 1016.36 1016.03 1015.68 1015.32 1014.93 1014.50 1014.01 1013.48 1012.89 1012.26 1011.59 1010.90 1010.21 1009.53 1008.86 1008.21 1007.57 1006.94 1006.31 1005.68 1005.05 1004.42 1003.81 1003.23 1002.71 1002.26 1001.90 1001.64 1001.48 1001.40 1001.39 1001.42 1001.46 1001.51 1001.54 1001.55
1017.67 1017.57 1017.42 1017.23 1017.01 1016.75 1016.48 1016.20 1015.90 1015.59 1015.28 1014.94 1014.57 1014.17 1013.72 1013.22 1012.67 1012.07 1011.43 1010.75 1010.06 1009.35 1008.65 1007.94 1007.24 1006.54 1005.84 1005.15 1004.47 1003.81 1003.19 1002.60 1002.09 1001.65 1001.29 1001.03 1000.86 1000.76 1000.72 1000.72 1000.74 1000.78 1000.82 1000.87
1017.04 1016.93 1016.80 1016.63 1016.45 1016.24 1016.02 1015.78 1015.52 1015.25 1014.96 1014.64 1014.30 1013.92 1013.49 1013.01 1012.48 1011.90 1011.27 1010.59 1009.88 1009.14 1008.38 1007.62 1006.84 1006.08 1005.31 1004.57 1003.85 1003.17 1002.54 1001.97 1001.47 1001.05 1000.72 1000.47 1000.29 1000.18 1000.12 1000.10 1000.11 1000.14 1000.21 1000.29
1016.30 1016.22 1016.14 1016.03 1015.92 1015.78 1015.63 1015.45 1015.24 1015.00 1014.74 1014.44 1014.10 1013.73 1013.31 1012.83 1012.31 1011.73 1011.10 1010.41 1009.67 1008.90 1008.10 1007.27 1006.44 1005.61 1004.80 1004.02 1003.28 1002.59 1001.97 1001.43 1000.96 1000.57 1000.26 1000.02 999.85 999.73 999.66 999.62 999.62 999.66 999.73 999.86
1015.52 1015.49 1015.48 1015.46 1015.43 1015.39 1015.31 1015.20 1015.04 1014.84 1014.59 1014.31 1013.97 1013.59 1013.16 1012.69 1012.16 1011.57 1010.93 1010.22 1009.47 1008.67 1007.83 1006.96 1006.08 1005.22 1004.37 1003.57 1002.82 1002.14 1001.54 1001.03 1000.60 1000.24 999.96 999.75 999.58 999.46 999.38 999.33 999.31 999.34 999.43 999.57
1014.74 1014.78 1014.85 1014.93 1015.00 1015.04 1015.05 1015.00 1014.90 1014.73 1014.50 1014.22 1013.88 1013.49 1013.05 1012.56 1012.02 1011.42 1010.77 1010.06 1009.28 1008.46 1007.60 1006.71 1005.80 1004.91 1004.05 1003.25 1002.51 1001.85 1001.28 1000.80 1000.41 1000.09 999.85 999.65 999.50 999.38 999.28 999.22 999.19 999.21 999.28 999.43
1014.01 1014.12 1014.28 1014.45 1014.61 1014.74 1014.82 1014.84 1014.78 1014.64 1014.43 1014.15 1013.80 1013.40 1012.95 1012.45 1011.90 1011.30 1010.64 1009.92 1009.14 1008.30 1007.43 1006.53 1005.61 1004.71 1003.85 1003.05 1002.32 1001.69 1001.15 1000.71 1000.36 1000.08 999.86 999.69 999.55 999.44 999.34 999.27 999.22 999.22 999.29 999.42
1013.36 1013.54 1013.76 1014.01 1014.25 1014.45 1014.60 1014.66 1014.64 1014.54 1014.34 1014.06 1013.72 1013.32 1012.86 1012.35 1011.80 1011.19 1010.53 1009.81 1009.03 1008.19 1007.31 1006.40 1005.49 1004.59 1003.72 1002.93 1002.22 1001.61 1001.10 1000.69 1000.37 1000.13 999.94 999.80 999.68 999.58 999.49 999.42 999.36 999.35 999.39 999.50
1012.80 1013.03 1013.31 1013.61 1013.91 1014.17 1014.36 1014.46 1014.48 1014.39 1014.21 1013.95 1013.61 1013.22 1012.76 1012.26 1011.71 1011.11 1010.45 1009.73 1008.95 1008.11 1007.23 1006.31 1005.39 1004.49 1003.62 1002.83 1002.13 1001.53 1001.04 1000.66 1000.37 1000.16 1000.01 999.90 999.81 999.73 999.66 999.60 999.55 999.54 999.56 999.64
1012.31 1012.58 1012.90 1013.24 1013.57 1013.86 1014.08 1014.22 1014.25 1014.19 1014.04 1013.79 1013.48 1013.10 1012.66 1012.17 1011.64 1011.04 1010.39 1009.67 1008.89 1008.05 1007.16 1006.23 1005.30 1004.38 1003.51 1002.71 1002.00 1001.40 1000.92 1000.55 1000.28 1000.10 999.98 999.91 999.86 999.82 999.79 999.76 999.73 999.73 999.75 999.81
1011.90 1012.19 1012.53 1012.89 1013.23 1013.54 1013.77 1013.92 1013.98 1013.94 1013.81 1013.60 1013.31 1012.96 1012.55 1012.08 1011.57 1010.99 1010.34 1009.63 1008.84 1007.99 1007.08 1006.14 1005.19 1004.25 1003.36 1002.54 1001.82 1001.21 1000.72 1000.36 1000.10 999.93 999.85 999.81 999.81 999.82 999.83 999.85 999.86 999.89 999.92 999.98
1011.54 1011.85 1012.19 1012.55 1012.90 1013.20 1013.44 1013.60 1013.67 1013.65 1013.55 1013.37 1013.12 1012.81 1012.43 1012.00 1011.51 1010.95 1010.31 1009.60 1008.81 1007.94 1007.02 1006.06 1005.08 1004.12 1003.20 1002.35 1001.61 1000.99 1000.48 1000.11 999.86 999.70 999.64 999.64 999.67 999.73 999.80 999.87 999.93 1000.00 1000.06 1000.13
1011.21 1011.53 1011.88 1012.23 1012.57 1012.86 1013.10 1013.26 1013.34 1013.35 1013.28 1013.14 1012.94 1012.67 1012.34 1011.94 1011.48 1010.94 1010.31 1009.60 1008.81 1007.94 1007.00 1006.02 1005.02 1004.03 1003.09 1002.22 1001.46 1000.81 1000.29 999.90 999.64 999.49 999.43 999.45 999.52 999.62 999.73 999.84 999.96 1000.06 1000.15 1000.24
1010.90 1011.24 1011.59 1011.93 1012.26 1012.54 1012.77 1012.94 1013.04 1013.07 1013.04 1012.94 1012.78 1012.56 1012.27 1011.92 1011.48 1010.97 1010.36 1009.66 1008.87 1008.00 1007.05 1006.07 1005.06 1004.06 1003.10 1002.22 1001.44 1000.77 1000.23 999.82 999.54 999.37 999.31 999.33 999.40 999.52 999.66 999.80 999.95 1000.08 1000.20 1000.31
1010.59 1010.95 1011.30 1011.65 1011.97 1012.25 1012.48 1012.65 1012.77 1012.83 1012.84 1012.79 1012.68 1012.50 1012.26 1011.95 1011.55 1011.06 1010.48 1009.80 1009.02 1008.15 1007.22 1006.24 1005.24 1004.25 1003.30 1002.41 1001.62 1000.94 1000.38 999.95 999.64 999.44 999.35 999.34 999.40 999.51 999.64 999.79 999.94 1000.09 1000.22 1000.34
1010.26 1010.64 1011.01 1011.37 1011.69 1011.97 1012.22 1012.41 1012.56 1012.66 1012.71 1012.71 1012.65 1012.52 1012.32 1012.05 1011.69 1011.23 1010.67 1010.02 1009.26 1008.42 1007.52 1006.57 1005.60 1004.63 1003.70 1002.83 1002.04 1001.36 1000.78 1000.32 999.97 999.74 999.60 999.54 999.55 999.61 999.70 999.82 999.96 1000.09 1000.22 1000.33
1009.87 1010.28 1010.68 1011.06 1011.40 1011.71 1011.98 1012.22 1012.41 1012.55 1012.65 1012.70 1012.69 1012.61 1012.46 1012.22 1011.89 1011.47 1010.94 1010.32 1009.60 1008.80 1007.93 1007.03 1006.11 1005.19 1004.30 1003.46 1002.69 1002.01 1001.43 1000.94 1000.55 1000.25 1000.05 999.92 999.85 999.84 999.87 999.93 1000.01 1000.11 1000.21 1000.31
1009.38 1009.83 1010.27 1010.68 1011.07 1011.42 1011.75 1012.03 1012.28 1012.48 1012.64 1012.74 1012.78 1012.75 1012.64 1012.44 1012.15 1011.76 1011.26 1010.67 1010.00 1009.25 1008.44 1007.60 1006.73 1005.87 1005.04 1004.25 1003.52 1002.85 1002.26 1001.75 1001.32 1000.96 1000.68 1000.46 1000.30 1000.19 1000.13 1000.11 1000.13 1000.17 1000.24 1000.32
1008.75 1009.25 1009.74 1010.21 1010.65 1011.07 1011.46 1011.82 1012.14 1012.41 1012.64 1012.80 1012.90 1012.91 1012.85 1012.68 1012.42 1012.06 1011.60 1011.06 1010.43 1009.73 1008.99 1008.21 1007.42 1006.63 1005.87 1005.13 1004.44 1003.80 1003.22 1002.69 1002.21 1001.79 1001.43 1001.12 1000.87 1000.66 1000.51 1000.40 1000.34 1000.32 1000.34 1000.39
Thickness
5716 5721 5715 5708 5706 5702 5688 5680 5664 5661 5653 5647 5646 5642 5637 5632 5627 5624 5619 5614 5608 5601 5595 5589 5584 5579 5574 5570 5566 5563 5559 5555 5553 5551 5548 5545 5542 5540 5538 5537 5539 5543 5549 5556
5706 5713 5711 5700 5696 5691 5685 5677 5668 5658 5647 5647 5642 5637 5632 5627 5622 5616 5610 5606 5601 5596 5590 5584 5578 5574 5569 5564 5559 5555 5551 5549 5547 5544 5541 5539 5537 5535 5533 5531 5531 5531 5534 5539
5696 5708 5704 5678 5682 5677 5670 5663 5653 5638 5635 5636 5632 5628 5622 5616 5610 5603 5601 5598 5594 5589 5582 5576 5570 5564 5558 5554 5549 5544 5541 5540 5538 5536 5533 5532 5531 5529 5527 5526 5526 5525 5527 5530
5688 5688 5673 5678 5691 5682 5666 5652 5649 5642 5635 5630 5624 5621 5617 5609 5602 5598 5594 5590 5585 5578 5571 5563 5555 5548 5541 5536 5531 5528 5526 5525 5525 5524 5523 5522 5521 5520 5520 5519 5519 5520 5522 5525
5675 5673 5674 5680 5681 5675 5661 5646 5643 5636 5632 5630 5626 5618 5611 5604 5596 5589 5585 5580 5573 5564 5555 5546 5535 5526 5518 5513 5508 5505 5504 5505 5506 5507 5508 5509 5508 5509 5510 5510 5511 5514 5517 5521
5675 5669 5661 5666 5677 5678 5663 5642 5641 5635 5627 5622 5612 5598 5598 5598 5591 5586 5579 5571 5562 5553 5542 5530 5518 5507 5497 5490 5484 5481 5480 5481 5484 5487 5490 5493 5495 5497 5499 5501 5504 5507 5512 5516
5668 5661 5661 5669 5673 5663 5632 5625 5633 5628 5618 5610 5599 5592 5594 5592 5586 5578 5571 5563 5554 5543 5530 5517 5505 5493 5483 5474 5469 5465 5463 5464 5466 5468 5472 5476 5480 5485 5488 5492 5495 5500 5505 5511
5659 5650 5650 5669 5662 5643 5632 5633 5627 5622 5616 5608 5602 5596 5590 5583 5577 5571 5565 5558 5549 5537 5523 5509 5495 5483 5474 5465 5460 5455 5452 5452 5453 5456 5459 5465 5469 5474 5478 5482 5486 5492 5497 5504
5666 5659 5666 5666 5657 5649 5640 5632 5627 5621 5616 5609 5601 5593 5585 5578 5572 5566 5560 5553 5543 5530 5517 5504 5490 5477 5468 5462 5455 5450 5447 5445 5446 5448 5450 5455 5459 5464 5469 5474 5479 5486 5492 5499
5672 5669 5666 5661 5657 5651 5645 5638 5631 5624 5615 5606 5596 5588 5579 5572 5568 5563 5557 5549 5539 5527 5515 5502 5489 5478 5468 5461 5454 5449 5446 5444 5443 5443 5446 5449 5453 5459 5464 5469 5474 5481 5488 5495
5669 5670 5667 5661 5656 5651 5645 5637 5629 5621 5612 5602 5592 5582 5574 5568 5565 5560 5554 5545 5535 5523 5511 5500 5490 5481 5472 5464 5457 5451 5449 5446 5444 5443 5444 5447 5452 5456 5462 5468 5473 5479 5486 5492
5662 5664 5657 5653 5654 5650 5640 5632 5624 5615 5606 5598 5588 5578 5571 5566 5563 5558 5551 5543 5534 5523 5512 5501 5493 5485 5479 5471 5462 5455 5451 5448 5446 5445 5446 5449 5452 5456 5462 5467 5472 5478 5484 5490
5675 5672 5663 5661 5654 5646 5638 5629 5621 5612 5603 5594 5586 5576 5569 5564 5561 5555 5549 5541 5533 5524 5514 5505 5496 5490 5485 5478 5470 5462 5456 5451 5448 5447 5449 5451 5453 5456 5460 5466 5471 5476 5481 5486
5681 5675 5665 5658 5649 5644 5637 5629 5619 5610 5601 5592 5584 5575 5567 5562 5558 5554 5547 5540 5534 5527 5518 5510 5502 5496 5491 5485 5479 5471 5464 5458 5454 5451 5451 5452 5453 5456 5460 5464 5469 5472 5476 5481
5680 5674 5663 5657 5650 5642 5634 5625 5615 5605 5598 5591 5582 5573 5566 5560 5556 5552 5547 5542 5537 5532 5525 5517 5509 5503 5498 5493 5488 5482 5475 5467 5462 5458 5457 5456 5457 5459 5462 5467 5470 5472 5474 5477
5678 5672 5664 5654 5646 5638 5631 5622 5611 5603 5595 5587 5579 5572 5565 5559 5555 5552 5548 5544 5541 5537 5532 5524 5516 5510 5505 5501 5496 5493 5487 5483 5477 5470 5467 5466 5466 5467 5468 5470 5473 5475 5476 5478
5672 5665 5658 5649 5642 5635 5627 5619 5610 5601 5592 5583 5576 5571 5564 5559 5555 5553 5550 5546 5544 5542 5537 5530 5524 5519 5515 5510 5505 5502 5498 5493 5491 5484 5480 5478 5478 5478 5478 5478 5479 5480 5480 5481
5675 5666 5657 5649 5638 5631 5625 5618 5609 5600 5590 5582 5576 5570 5563 5557 5553 5550 5548 5548 5549 5549 5545 5539 5534 5530 5527 5522 5516 5511 5507 5504 5500 5496 5493 5491 5490 5489 5488 5487 5486 5485 5484 5483
5670 5661 5653 5646 5637 5629 5622 5615 5607 5598 5590 5581 5575 5569 5563 5557 5552 5548 5548 5548 5549 5549 5548 5545 5543 5542 5540 5535 5530 5523 5519 5515 5512 5508 5505 5504 5501 5499 5497 5495 5493 5491 5490 5489
5665 5657 5649 5642 5635 5627 5619 5613 5605 5596 5588 5581 5574 5568 5563 5560 5555 5550 5548 5547 5546 5544 5545 5548 5551 5552 5550 5548 5544 5538 5532 5527 5523 5519 5516 5514 5512 5509 5507 5505 5503 5501 5501 5500
5659 5652 5644 5637 5631 5625 5618 5611 5602 5594 5586 5579 5572 5566 5561 5557 5553 5549 5547 5548 5548 5547 5548 5552 5555 5556 5556 5556 5555 5551 5547 5542 5536 5531 5527 5524 5522 5520 5517 5515 5513 5513 5512 5512
5652 5646 5640 5633 5627 5620 5613 5606 5598 5590 5583 5576 5570 5565 5560 5556 5552 5547 5544 5542 5544 5545 5548 5552 5555 5556 5559 5563 5564 5563 5560 5556 5550 5544 5539 5536 5532 5529 5527 5525 5523 5522 5522 5523
5647 5641 5636 5630 5623 5615 5609 5601 5593 5585 5578 5572 5566 5561 5556 5551 5548 5544 5543 5542 5542 5543 5546 5550 5552 5556 5561 5566 5567 5568 5567 5564 5560 5556 5551 5547 5544 5541 5538 5536 5533 5532 5531 5531
5641 5634 5630 5625 5618 5610 5601 5594 5586 5579 5572 5567 5561 5557 5552 5548 5545 5541 5538 5537 5537 5539 5543 5545 5549 5555 5561 5564 5565 5566 5567 5566 5566 5564 5561 5557 5554 5551 5548 5546 5543 5541 5540 5540
5636 5629 5623 5617 5610 5602 5595 5587 5579 5572 5566 5560 5555 5550 5547 5543 5540 5538 5536 5534 5533 5535 5539 5543 5547 5551 5556 5559 5561 5562 5563 5563 5564 5566 5567 5566 5564 5561 5558 5556 5553 5551 5549 5549
5633 5626 5620 5613 5605 5596 5587 5580 5572 5565 5560 5554 5549 5544 5541 5538 5536 5534 5532 5531 5530 5531 5534 5537 5542 5546 5550 5553 5555 5556 5558 5560 5563 5565 5568 5570 5571 5570 5568 5566 5564 5561 5560 5559
5630 5622 5613 5605 5597 5590 5582 5574 5566 5559 5553 5548 5542 5538 5535 5532 5531 5529 5528 5526 5525 5526 5528 5530 5534 5538 5543 5546 5549 5551 5552 5554 5557 5560 5564 5568 5571 5573 5574 5574 5572 5571 5570 5568